Weather in Peñíscola

Spain     40°21′35″N   0°24′07″E
temp.,
°C
wind,
m/s
gust,
m/s
humid.,
%
clouds,
%
prec.,
mm/h
press.,
hPa
HPBL,
m
19 january, wed
wed1901:00+12nw11550 0.0 1032283
04:00+11n32540 0.0 1031260
07:00+11n33570 0.0 1031277
10:00+11n32600 0.0 1032313
13:00+11ne22650 0.0 1031280
16:00+11e11650 0.0 1029260
19:00+12ssw11645 0.0 1029274
22:00+12wnw11631 0.0 1030258
20 january, thu
thu2001:00+12nnw2457100 0.0 1029395
04:00+11nnw912620 0.0 1028867
07:00+10n55632 0.0 1028567
10:00+10n33631 0.0 1028334
13:00+10ene22610 0.0 1028290
16:00+11ese22600 0.0 1025266
19:00+12s22602 0.0 1024235
22:00+12wnw57644 0.0 1024496
21 january, fri
fri2101:00+12nw68661 0.0 1024523
04:00+11nw56655 0.0 1023454
07:00+10nw1010642 0.0 1023532
10:00+9nnw44622 0.0 1024481
13:00+10nne22520 0.0 1024522
16:00+10e32560 0.0 1024366
19:00+11s21560 0.0 1025479
22:00+11w11543 0.0 1028488
22 january, sat
sat2201:00+9n325226 0.0 1028271
04:00+8nnw22505 0.0 1028266
07:00+8n21495 0.0 1029284
10:00+8nne22517 0.0 1031331
13:00+8ene32544 0.0 1031379
16:00+9ese226022 0.0 1029345
19:00+9sse11685 0.0 1029475
22:00+10nw117231 0.0 1030340
23 january, sun
sun2301:00+10nw22750 0.0 1028216
04:00+10nw22710 0.0 1027264
07:00+10nne22620 0.0 1026298
10:00+10ne33560 0.0 1027422
13:00+10ne33620 0.0 1028472
16:00+10ne22600 0.0 1027381
19:00+11ne12560 0.0 1027359
22:00+11nnw21590 0.0 1028366